Location: Oundoundou
(13.6667°N, 13.5500°W)
Time: 00:58:15
(UTC+00:00)

Daily predictions for brighter satellites

Satellite Brightness Start Highest point End
(mag) Time Altitude Azimuth Time Altitude Azimuth Time Altitude Azimuth
ATLAS CENTAUR R/B 4.2 03:32:04 57° N 03:32:04 57° N 03:46:02 10° NNE
SL-16 R/B 3.6 03:53:11 35° NE 03:53:11 35° NE 03:56:28 10° NNE
Ariane H10 4.3 04:10:26 29° SE 04:10:26 29° SE 04:17:46 10° ESE
CZ-3C R/B 3.4 04:11:33 23° SE 04:11:33 23° SE 04:15:55 10° ESE
Cosmos 2279 Rocket 4.2 04:11:31 67° NE 04:11:31 67° NE 04:17:00 10° N
Hubble Space Telescope 3.4 04:19:15 16° ESE 04:19:15 16° ESE 04:20:23 10° E
SL-16 R/B 3.6 04:26:08 31° NW 04:26:08 31° NW 04:29:16 10° NNW
PAYLOAD B 4.4 04:20:44 10° N 04:25:23 63° N 04:25:23 63° N
CZ-4B R/B 3.4 04:21:55 10° N 04:26:24 62° N 04:26:24 62° N
OAO 3 Rocket 4.3 04:33:39 36° ESE 04:33:39 36° ESE 04:36:25 10° ESE
Cosmos 2221 3.5 04:35:31 42° E 04:35:40 42° E 04:39:42 10° NNE
CCE 1 Rocket 4.2 04:39:11 50° ENE 04:39:11 50° ENE 04:42:15 10° ESE
Okean O Rocket 3.6 04:34:44 10° N 04:36:10 19° NNW 04:36:10 19° NNW
MOZ.5/SAFIR/RUBIN 5/SL-8 4.4 04:38:57 28° SE 04:41:15 56° ENE 04:45:51 10° N
ADEOS Rocket 4.2 04:36:14 10° NNE 04:43:03 50° ESE 04:50:24 10° S
NOSS 3-4 (A) 3.8 04:36:58 10° NNW 04:44:19 82° WSW 04:51:59 10° SSE
NOSS 3-4 (C) 3.8 04:37:05 10° NNW 04:44:28 83° WSW 04:52:10 10° SSE
Cosmos 1655 Rocket 3.9 04:41:29 10° N 04:47:52 84° W 04:51:40 26° S
GEOS 3 Rocket 4.1 04:43:02 10° SE 04:48:12 59° ENE 04:53:19 10° NNW
CZ-3 R/B 3.9 04:28:18 25° W 04:49:09 56° NNW 04:57:57 10° NE
ARGOS Delta rocket 4.1 04:44:25 10° N 04:48:24 52° NW 04:48:24 52° NW
ADEOS II 2.8 04:44:40 10° NNE 04:49:45 51° E 04:53:03 21° S
Cosmos 2360 Rocket 2.2 04:48:50 47° S 04:50:28 77° ESE 04:56:05 10° NNE
Meteor 1-21 Rocket 4.3 04:50:49 10° NNW 04:56:36 59° W 04:57:59 47° SW
BREEZE-M DEB (TANK) 3.1 04:57:40 34° ENE 04:57:40 34° ENE 05:00:58 10° SE
SEDSat Delta rocket 4.0 05:01:52 36° S 05:01:52 36° S 05:05:58 10° SE
OTV 4 2.0 05:02:03 34° E 05:02:03 34° E 05:04:03 10° ENE
Cosmos 1125 Rocket 3.3 04:56:02 10° NNW 05:01:13 79° WSW 05:06:24 10° S
Cosmos 2322 Rocket 3.7 05:02:40 20° NW 05:02:40 20° NW 05:05:47 10° NNW
GPS 2-12 Rocket1 4.1 05:06:12 27° NW 05:07:49 36° N 05:11:59 10° ENE
Feng Yun 1-1 Rocket 4.1 05:04:36 10° N 05:10:05 79° WNW 05:13:14 26° SSW
PSLV R/B 3.5 05:07:15 10° N 05:11:26 60° WNW 05:12:16 49° SW
Cosmos 2026 Rocket 4.3 05:05:44 10° NNW 05:11:35 43° W 05:13:55 31° SW
Cosmos 1437 Rocket 4.1 05:18:09 10° SSE 05:21:41 38° E 05:25:12 10° NNE
Okean-O 3.1 05:19:35 10° N 05:23:42 39° WNW 05:24:51 33° WSW
RESURS DK-1 3.0 05:20:40 10° N 05:24:43 58° ENE 05:28:46 10° SSE
OAO 2 Rocket 4.3 05:22:10 21° SSW 05:25:06 38° SE 05:29:50 10° ENE
Thor Agena Rocket 3.4 05:21:59 10° S 05:26:58 60° WSW 05:31:56 10° NNW
Delta 7925 Rocket 3.5 05:22:47 13° WNW 05:27:37 72° NNE 05:32:18 10° ESE
Cosmos 1674 3.5 05:24:32 10° NNW 05:27:26 30° WNW 05:27:26 30° WNW
Cosmos 1680 Rocket 3.4 05:24:10 19° SSW 05:27:58 75° WNW 05:33:09 10° N
Cosmos 1805 Rocket 4.4 05:23:50 10° N 05:28:05 52° E 05:32:21 10° SSE
Meteor 2-20 4.4 05:25:01 10° N 05:31:04 72° W 05:37:09 10° S
Cosmos 2219 Rocket 3.8 05:27:05 10° SSE 05:32:00 32° ESE 05:36:53 10° NE
Cosmos 1461 3.4 05:32:55 10° NNW 05:36:48 56° ENE 05:40:36 10° SE
Centaur D-1AR AC-36 3.7 05:21:13 20° WSW 05:38:16 65° SSE 05:43:21 10° E
COSMOS 2428 2.6 05:36:19 10° SSW 05:41:58 80° WNW 05:47:38 10° NNE
USA 116 2.9 05:40:10 10° S 05:43:15 81° W 05:46:21 10° NNW
Delta R/B 4.4 05:41:13 10° NW 05:43:37 48° NNE 05:52:05 10° ESE
Cosmos 1328 Rocket 3.6 05:39:27 10° S 05:43:53 87° E 05:48:19 10° N
Sich 1 4.1 05:39:50 10° N 05:44:01 48° E 05:48:14 10° SSE
Aurora 2 Rocket 4.1 05:42:49 10° NW 05:45:21 22° NNE 05:48:13 10° ENE
ARIANE 5 DEB (SYLDA) 4.0 05:42:11 17° WSW 05:45:53 26° SSW 05:48:38 10° SE
Mugunghwa Rocket 4.5 05:41:25 16° W 05:45:54 37° SSW 05:51:41 10° SE
SL-14 R/B 3.3 05:42:50 10° N 05:46:41 81° E 05:50:32 10° S
ISS -2.8 05:44:16 10° NNW 05:47:28 61° NE 05:50:41 10° SE
FUSE 3.9 05:43:03 10° WNW 05:48:25 89° NNE 05:53:46 10° ESE
SWIFT 2.2 05:49:41 11° WNW 05:53:40 81° SSW 05:57:53 10° ESE
Cosmos 2333 4.1 05:48:06 10° SSW 05:53:41 80° WNW 05:59:20 10° NNE
XTE 3.4 05:50:39 10° WNW 05:53:42 63° NNE 05:56:45 10° E
Cosmos 1666 Rocket 3.5 05:51:38 10° N 05:55:58 88° ENE 06:00:18 10° S
Cosmos 405 2.9 05:53:37 10° S 05:57:13 72° W 06:00:49 10° N
Hubble Space Telescope 1.2 05:54:38 14° W 05:58:00 53° NNW 06:02:03 10° NE
Cosmos 2151 4.0 05:54:32 10° NW 05:58:03 25° W 06:01:32 10° SSW
Cosmos 1553 Rocket 4.4 05:51:57 10° S 05:58:19 72° E 06:04:40 10° N
Cosmos 2228 Rocket 3.6 05:55:53 10° SSW 06:00:02 40° W 06:04:13 10° NNW
Tiangong 1 1.9 05:59:35 14° WSW 06:01:52 36° NW 06:04:44 10° NNE
Ariane H10 3.8 06:00:39 13° SW 06:02:37 29° S 06:06:39 10° ESE
Cosmos 2263 Rocket 2.7 05:59:18 10° N 06:04:47 65° ENE 06:10:17 10° SSE
NOAA 6 4.4 06:00:03 10° N 06:04:52 44° WNW 06:09:43 10° SSW
Cosmos 1417 Rocket 4.5 05:58:49 10° S 06:04:54 70° W 06:11:04 10° N
Alouette 2 Rocket 4.1 06:07:32 10° NNW 06:11:48 61° W 06:18:09 10° S
Cosmos 1908 3.2 06:10:59 10° SSW 06:14:48 63° W 06:18:39 10° N
COSMO-SKYMED 1 3.6 06:12:39 10° SSE 06:16:51 52° ENE 06:21:03 10° N
Meteor 1-31 Rocket 4.4 06:14:55 10° NW 06:17:25 17° WNW 06:19:55 10° WSW
Lacrosse 4 Rocket 1.5 06:15:14 10° SSW 06:19:19 78° ESE 06:23:28 10° NNE
